Weather History for Pittsfield, IL

Change the Weather History Date:

Saturday, April 6, 2013

  Actual Average (KUIN) Record (KUIN)
Temperature  
Mean Temperature 62 °F 50 °F  
Max Temperature 73 °F 60 °F 82 °F (1972)
Min Temperature 50 °F 40 °F 17 °F (1982)
Degree Days  
Heating Degree Days 4 15  
Month to date heating degree days 97  
Since 1 July heating degree days 5157  
Cooling Degree Days 0 0  
Month to date cooling degree days 0  
Year to date cooling degree days 2  
Growing Degree Days 12 (Base 50)    
Moisture  
Dew Point 39 °F    
Average Humidity 44    
Maximum Humidity 62    
Minimum Humidity 26    
Precipitation  
Precipitation 0.00 in 0.11 in 2.86 in (1909)
Month to date precipitation 0.65  
Year to date precipitation 6.51  
Sea Level Pressure  
Sea Level Pressure 29.83 in    
Wind  
Wind Speed 14 mph (South)    
Max Wind Speed 30 mph    
Max Gust Speed 40 mph    
Visibility 10 miles    
Events Thunderstorm    
T = Trace of Precipitation, MM = Missing Value Source: NWS Daily Summary

Daily Weather History Graph

Daily Weather History Graph

Search for Another Location

Airport:

Trip Planner

Search our weather history database for the weather conditions in past years. The results will help you decide how hot, cold, wet, or windy it might be!

Date:

Astronomy

Apr. 06, 2013 Rise Set
Actual Time 6:39 AM CDT 7:32 PM CDT
Civil Twilight 6:11 AM CDT 7:59 PM CDT
Nautical Twilight 5:39 AM CDT 8:32 PM CDT
Astronomical Twilight 5:05 AM CDT 9:06 PM CDT
Moon 4:22 AM CDT (4/6) 4:01 PM CDT (4/6)
Length of Visible Light 13h 48m
Length of Day
12h 53m
Waning Crescent, 15% of the Moon is Illuminated
Apr 6
Waning Crescent
Apr 10
New
Apr 18
First Quarter
Apr 25
Full
May 2
Last Quarter

Hourly Weather History & Observations

Time (CDT) Temp. Dew Point Humidity Pressure Visibility Wind Dir Wind Speed Gust Speed Precip Events Conditions
12:15 AM 53.6 °F 35.6 °F 51% 30.03 in 10.0 mi SE 10.4 mph - N/A   Clear
12:35 AM 54.0 °F 35.1 °F 49% 30.01 in 10.0 mi SE 12.7 mph - N/A   Clear
12:55 AM 53.8 °F 35.2 °F 50% 30.01 in 10.0 mi SE 10.4 mph - N/A   Clear
1:15 AM 53.8 °F 35.2 °F 50% 30.01 in 10.0 mi SE 13.8 mph 18.4 mph N/A   Clear
1:35 AM 53.6 °F 35.2 °F 50% 30.01 in 10.0 mi SE 10.4 mph - N/A   Clear
1:55 AM 53.4 °F 35.6 °F 51% 30.00 in 10.0 mi SE 12.7 mph - N/A   Clear
2:15 AM 52.9 °F 36.0 °F 53% 30.00 in 10.0 mi SE 12.7 mph - N/A   Clear
2:35 AM 52.7 °F 36.3 °F 54% 29.99 in 10.0 mi SE 12.7 mph - N/A   Clear
2:55 AM 52.9 °F 36.5 °F 54% 29.99 in 10.0 mi SE 11.5 mph - N/A   Clear
3:15 AM 52.7 °F 36.3 °F 54% 29.98 in 10.0 mi SE 13.8 mph 19.6 mph N/A   Clear
3:35 AM 52.2 °F 36.5 °F 55% 29.97 in 10.0 mi SE 10.4 mph - N/A   Clear
3:55 AM 52.3 °F 36.3 °F 54% 29.96 in 10.0 mi SE 11.5 mph - N/A   Clear
4:15 AM 51.8 °F 36.7 °F 56% 29.96 in 10.0 mi SSE 11.5 mph - N/A   Clear
4:35 AM 51.8 °F 36.5 °F 56% 29.96 in 10.0 mi SE 10.4 mph - N/A   Clear
4:55 AM 51.4 °F 36.7 °F 57% 29.95 in 10.0 mi SE 10.4 mph - N/A   Clear
5:15 AM 51.3 °F 36.7 °F 57% 29.94 in 10.0 mi SE 10.4 mph - N/A   Clear
5:35 AM 50.9 °F 36.7 °F 58% 29.94 in 10.0 mi SE 9.2 mph - N/A   Clear
5:55 AM 50.5 °F 37.0 °F 60% 29.94 in 10.0 mi SE 8.1 mph - N/A   Clear
6:15 AM 50.2 °F 37.4 °F 62% 29.94 in 10.0 mi SSE 9.2 mph - N/A   Clear
6:35 AM 50.4 °F 37.4 °F 61% 29.94 in 10.0 mi SSE 10.4 mph - N/A   Clear
6:55 AM 50.5 °F 37.2 °F 60% 29.94 in 10.0 mi SE 11.5 mph - N/A   Clear
7:15 AM 50.9 °F 37.6 °F 60% 29.94 in 10.0 mi SE 10.4 mph - N/A   Clear
7:35 AM 51.3 °F 37.6 °F 60% 29.94 in 10.0 mi SE 11.5 mph - N/A   Clear
7:55 AM 51.8 °F 38.3 °F 60% 29.94 in 10.0 mi SSE 11.5 mph - N/A   Scattered Clouds
8:15 AM 52.7 °F 38.3 °F 58% 29.95 in 10.0 mi SSE 8.1 mph - N/A   Scattered Clouds
8:35 AM 53.2 °F 39.0 °F 59% 29.93 in 10.0 mi SSE 8.1 mph - N/A   Clear
8:55 AM 58.3 °F 37.4 °F 46% 29.92 in 10.0 mi South 13.8 mph - N/A   Clear
9:15 AM 59.5 °F 36.9 °F 43% 29.91 in 10.0 mi South 16.1 mph 26.5 mph N/A   Clear
9:35 AM 60.1 °F 36.1 °F 41% 29.90 in 10.0 mi South 17.3 mph 26.5 mph N/A   Clear
9:55 AM 61.3 °F 37.0 °F 40% 29.89 in 10.0 mi South 15.0 mph 25.3 mph N/A   Clear
10:15 AM 61.7 °F 36.0 °F 38% 29.87 in 10.0 mi South 18.4 mph 26.5 mph N/A   Clear
10:35 AM 63.1 °F 35.6 °F 36% 29.88 in 10.0 mi South 15.0 mph 25.3 mph N/A   Clear
10:55 AM 65.3 °F 35.6 °F 33% 29.84 in 10.0 mi South 23.0 mph 34.5 mph N/A   Clear
11:15 AM 65.8 °F 34.5 °F 31% 29.83 in 10.0 mi South 29.9 mph 38.0 mph N/A   Clear
11:35 AM 65.7 °F 34.9 °F 32% 29.80 in 10.0 mi South 29.9 mph 40.3 mph N/A   Clear
11:55 AM 67.1 °F 34.0 °F 29% 29.82 in 10.0 mi South 25.3 mph 35.7 mph N/A   Clear
12:15 PM 69.1 °F 34.3 °F 28% 29.81 in 10.0 mi South 26.5 mph 33.4 mph N/A   Clear
12:35 PM 70.5 °F 34.5 °F 27% 29.79 in 10.0 mi South 25.3 mph 35.7 mph N/A   Clear
12:55 PM 69.8 °F 32.9 °F 26% 29.79 in 10.0 mi SSW 24.2 mph 36.8 mph N/A   Clear
1:15 PM 70.0 °F 34.7 °F 27% 29.77 in 10.0 mi South 20.7 mph 31.1 mph N/A   Clear
1:35 PM 69.6 °F 34.5 °F 27% 29.75 in 10.0 mi South 19.6 mph 31.1 mph N/A   Clear
1:55 PM 70.7 °F 34.7 °F 27% 29.74 in 10.0 mi South 19.6 mph 29.9 mph N/A   Clear
2:15 PM 70.7 °F 34.3 °F 26% 29.74 in 10.0 mi South 23.0 mph 28.8 mph N/A   Clear
2:35 PM 71.6 °F 35.6 °F 27% 29.73 in 10.0 mi South 17.3 mph 31.1 mph N/A   Clear
2:55 PM 71.1 °F 36.3 °F 28% 29.72 in 10.0 mi South 19.6 mph 27.6 mph N/A   Clear
3:15 PM 71.8 °F 36.3 °F 27% 29.71 in 10.0 mi South 25.3 mph 32.2 mph N/A   Clear
3:35 PM 71.1 °F 36.5 °F 28% 29.70 in 10.0 mi South 19.6 mph 33.4 mph N/A   Clear
3:55 PM 72.3 °F 37.4 °F 28% 29.69 in 10.0 mi SSW 20.7 mph 28.8 mph N/A   Clear
4:15 PM 71.6 °F 37.6 °F 29% 29.71 in 10.0 mi SSW 12.7 mph 24.2 mph N/A   Clear
4:35 PM 71.4 °F 38.3 °F 30% 29.69 in 10.0 mi SSW 18.4 mph 26.5 mph N/A   Clear
4:55 PM 72.9 °F 38.5 °F 29% 29.68 in 10.0 mi SSW 24.2 mph 31.1 mph N/A   Clear
5:15 PM 72.5 °F 38.5 °F 29% 29.68 in 10.0 mi SSW 23.0 mph 29.9 mph N/A   Clear
5:35 PM 73.4 °F 38.8 °F 29% 29.68 in 10.0 mi SSW 20.7 mph 33.4 mph N/A   Clear
5:55 PM 71.8 °F 39.0 °F 30% 29.69 in 10.0 mi SSW 15.0 mph 28.8 mph N/A   Clear
6:15 PM 71.6 °F 39.4 °F 31% 29.69 in 10.0 mi SSW 11.5 mph 24.2 mph N/A   Clear
6:35 PM 71.6 °F 40.3 °F 32% 29.70 in 10.0 mi SSW 13.8 mph 19.6 mph N/A   Scattered Clouds
6:55 PM 70.7 °F 40.5 °F 33% 29.70 in 10.0 mi SSW 11.5 mph 16.1 mph N/A   Mostly Cloudy
7:15 PM 70.5 °F 40.5 °F 34% 29.71 in 10.0 mi SSW 11.5 mph - N/A   Overcast
7:35 PM 70.0 °F 41.5 °F 36% 29.71 in 10.0 mi SW 10.4 mph - N/A   Overcast
7:55 PM 70.2 °F 44.4 °F 40% 29.71 in 10.0 mi SW 13.8 mph 19.6 mph N/A   Overcast
8:15 PM 69.3 °F 45.7 °F 43% 29.71 in 10.0 mi SW 11.5 mph 19.6 mph N/A   Mostly Cloudy
8:35 PM 68.4 °F 46.2 °F 45% 29.71 in 10.0 mi SW 10.4 mph 18.4 mph N/A   Scattered Clouds
8:55 PM 67.8 °F 46.9 °F 47% 29.72 in 10.0 mi SW 10.4 mph - N/A   Scattered Clouds
9:15 PM 67.8 °F 47.8 °F 49% 29.72 in 10.0 mi SW 15.0 mph 18.4 mph N/A Thunderstorm Unknown
9:35 PM 68.4 °F 47.8 °F 48% 29.73 in 10.0 mi SW 16.1 mph 21.9 mph N/A   Mostly Cloudy
9:55 PM 68.0 °F 48.4 °F 49% 29.75 in 10.0 mi WSW 15.0 mph - N/A   Mostly Cloudy
10:15 PM 68.0 °F 49.1 °F 51% 29.75 in 10.0 mi WSW 15.0 mph 19.6 mph N/A   Scattered Clouds
10:35 PM 67.3 °F 48.9 °F 52% 29.76 in 10.0 mi WSW 15.0 mph 23.0 mph N/A   Clear
10:55 PM 66.6 °F 49.1 °F 53% 29.77 in 10.0 mi WSW 10.4 mph 19.6 mph N/A   Clear
11:15 PM 65.1 °F 48.7 °F 55% 29.78 in 10.0 mi WSW 6.9 mph - N/A   Clear
11:35 PM 64.2 °F 48.2 °F 56% 29.78 in 10.0 mi WSW 6.9 mph - N/A   Clear
11:55 PM 61.3 °F 47.8 °F 61% 29.79 in 10.0 mi West 4.6 mph - N/A   Clear